This is the latest recevied weather packets stored in our database for station/object DB0MOE-6. If no packets are shown the sender has not sent any weather packets the latest 1 day(s).
| Time | Temp. | Humidity | Pressure | Rain* | Wind** | Luminosity | Snow |
|---|---|---|---|---|---|---|---|
| 1777973841 | 16.67° C | 78% | 989.6 hPa | 0 mm | 0.45 m/s, 261° | - | - |
| 1777973781 | 16.67° C | 77% | 989.7 hPa | 0 mm | 0.89 m/s, 268° | - | - |
| 1777973723 | 16.67° C | 77% | 989.6 hPa | 0 mm | 0.45 m/s, 294° | - | - |
| 1777973663 | 16.11° C | 77% | 989.7 hPa | 0 mm | 0 m/s | - | - |
| 1777973603 | 16.11° C | 76% | 989.8 hPa | 0 mm | 0 m/s | - | - |
| 1777973543 | 16.11° C | 75% | 989.9 hPa | 0 mm | 0.45 m/s, 270° | - | - |
| 1777973483 | 16.67° C | 76% | 989.8 hPa | 0 mm | 0.89 m/s, 284° | - | - |
| 1777973423 | 16.67° C | 76% | 989.7 hPa | 0 mm | 0.89 m/s, 263° | - | - |
| 1777973363 | 17.22° C | 76% | 989.7 hPa | 0 mm | 0.45 m/s, 282° | - | - |
| 1777973303 | 17.22° C | 76% | 989.7 hPa | 0 mm | 0 m/s | - | - |
| 1777973242 | 17.22° C | 76% | 989.8 hPa | 0 mm | 0.45 m/s, 281° | - | - |
| 1777973182 | 17.22° C | 75% | 989.8 hPa | 0 mm | 0 m/s | - | - |
| 1777973122 | 16.67° C | 76% | 989.7 hPa | 0 mm | 0 m/s | - | - |
| 1777973062 | 16.11° C | 78% | 989.7 hPa | 0 mm | 0 m/s | - | - |
| 1777973002 | 16.11° C | 79% | 989.8 hPa | 0 mm | 0 m/s | - | - |
| 1777972942 | 16.11° C | 79% | 989.7 hPa | 0 mm | 0 m/s | - | - |
| 1777972882 | 16.11° C | 79% | 989.6 hPa | 0 mm | 0.45 m/s, 273° | - | - |
| 1777972822 | 16.11° C | 78% | 989.7 hPa | 0 mm | 0.89 m/s, 278° | - | - |
| 1777972762 | 16.11° C | 78% | 989.7 hPa | 0 mm | 0.89 m/s, 278° | - | - |
| 1777972702 | 16.11° C | 78% | 989.8 hPa | 0 mm | 0.89 m/s, 270° | - | - |
| 1777972642 | 16.11° C | 79% | 989.7 hPa | 0 mm | 0.89 m/s, 270° | - | - |
| 1777972582 | 16.11° C | 81% | 989.9 hPa | 0 mm | 0.89 m/s, 287° | - | - |
| 1777972522 | 16.11° C | 79% | 989.8 hPa | 0 mm | 0.89 m/s, 304° | - | - |
| 1777972462 | 16.11° C | 80% | 989.8 hPa | 0 mm | 0.45 m/s, 282° | - | - |
| 1777972402 | 16.11° C | 80% | 989.9 hPa | 0 mm | 0.89 m/s, 305° | - | - |
* Rain latest hour (hover to see other rain measurements)
** Current wind speed in m/s (hover to see current wind gust speed)